Wind_Speed
12 14 15 17 18 19 19 19 20 20 20 19 18 17 17 17 17 16 15 14 14 13 12 12 11 10 10 10 9 8 7 5 4 4 4 4 4 5 5 6 7 9 10 10
11 12 14 16 17 18 19 18 19 19 18 18 18 17 17 17 16 15 15 14 13 13 13 12 12 11 11 10 9 8 6 5 4 3 3 3 4 5 5 6 7 9 9 10
9 11 13 15 16 16 17 17 18 18 17 18 18 17 16 16 16 15 15 14 13 13 13 12 12 11 11 10 9 8 6 5 4 3 2 3 3 4 5 6 7 8 9 10
10 11 13 14 14 15 16 16 16 16 17 17 17 17 16 16 15 14 14 13 13 13 12 13 12 11 10 10 9 8 6 5 3 3 3 3 3 4 5 6 7 8 9 10
11 12 13 14 14 14 14 15 15 16 16 16 17 17 16 16 15 14 13 13 13 13 13 12 12 12 11 10 9 8 6 5 4 3 4 3 4 4 5 6 7 8 9 9
10 12 13 14 14 14 15 15 15 16 17 16 15 16 16 15 14 14 14 13 14 13 13 13 13 13 12 11 9 8 7 5 4 4 4 3 3 4 5 6 7 8 8 9
10 12 13 14 14 14 15 14 15 15 16 15 14 15 15 15 14 14 15 15 15 14 13 13 13 13 12 11 9 8 7 6 5 5 4 3 3 4 5 6 7 7 8 8
11 12 13 14 14 13 14 13 13 13 13 13 13 13 14 14 14 14 15 15 15 15 14 13 14 13 12 11 10 9 7 6 6 6 5 4 4 5 5 6 7 7 7 8
11 12 14 14 15 14 14 13 11 12 12 12 12 12 12 14 14 14 14 14 14 14 14 14 13 13 12 12 10 10 8 8 7 6 5 5 5 5 6 6 6 6 7 8
11 12 13 14 15 14 13 12 12 12 13 13 12 11 12 13 14 15 14 14 14 14 14 14 13 13 13 12 11 10 9 8 7 7 6 5 5 6 6 6 6 7 7 8
11 11 12 13 13 12 12 11 11 11 12 12 11 10 12 13 14 14 15 14 15 15 14 14 14 13 12 12 11 10 9 8 7 7 6 6 6 6 6 6 6 7 8 8
11 11 12 12 13 12 12 11 11 11 10 10 9 10 12 12 13 13 15 15 15 15 15 15 15 14 13 12 11 10 10 9 8 8 7 7 7 7 7 7 7 8 8 8
11 12 12 12 13 12 12 11 11 11 11 11 11 10 11 11 12 12 13 14 14 15 14 15 14 14 13 12 11 11 10 9 9 8 8 8 8 8 8 8 8 8 9 9
12 13 12 11 11 11 11 11 11 11 11 10 10 10 11 11 11 12 13 13 14 15 14 14 13 14 13 13 12 11 10 10 10 9 9 9 9 8 8 8 9 9 9 10
12 13 13 12 12 12 12 12 12 11 10 9 9 9 10 11 12 11 12 13 13 13 14 14 14 13 13 12 12 11 11 10 10 10 10 10 9 9 9 10 10 10 11 11
13 14 14 13 13 13 12 11 11 11 10 10 10 9 9 10 11 12 12 13 13 13 13 14 14 13 13 12 12 12 11 11 11 11 11 11 11 11 11 11 12 12 13 13
15 15 16 14 14 13 13 12 11 11 11 11 11 10 10 10 10 11 12 13 14 14 14 14 13 13 13 13 13 12 11 11 12 12 13 13 12 12 13 13 14 14 15 15
16 15 15 16 15 15 11 12 12 12 13 12 12 12 12 11 12 12 13 14 15 15 15 14 14 14 14 13 13 13 13 13 13 14 14 14 14 15 15 16 16 16 17 18
18 17 17 17 17 14 13 13 13 13 13 13 13 13 13 13 13 13 13 14 15 16 16 15 16 16 15 14 14 15 15 15 15 15 15 16 16 16 17 18 18 19 20 21
20 19 19 19 18 16 14 15 15 14 13 13 14 14 15 15 14 13 14 15 15 16 16 17 17 17 16 16 17 17 17 16 16 16 17 17 18 18 19 20 20 21 22 23
21 21 21 20 19 16 16 16 16 14 12 14 14 14 15 15 15 15 16 15 16 16 16 17 17 17 18 18 18 18 18 18 18 19 19 20 21 21 21 22 23 24 25 26
22 22 21 21 20 17 16 16 16 15 15 15 15 15 15 16 16 16 17 17 17 17 17 18 19 19 19 19 19 20 20 21 21 22 22 23 23 24 24 25 26 27 28 29
23 23 22 21 20 18 18 18 18 18 18 17 17 17 17 17 17 17 17 18 18 19 19 19 20 20 20 21 22 22 22 23 23 24 24 25 25 26 27 28 29 30 30 31
24 24 24 23 21 21 21 20 21 20 20 19 19 19 19 19 19 19 19 20 20 20 20 21 21 22 23 23 24 24 25 25 26 27 27 28 28 29 30 31 32 33 34 34
24 25 25 25 24 23 23 23 23 23 22 22 22 22 22 22 22 22 21 21 21 22 22 23 23 24 25 25 26 27 27 28 28 29 30 30 31 32 33 34 35 36 37 37
25 26 26 26 26 26 25 26 26 25 25 25 25 24 24 24 24 24 23 24 24 24 25 25 26 26 27 28 28 29 30 30 31 32 32 33 34 35 36 37 38 38 39 40
Wind_Direction
204 205 204 205 205 203 202 203 205 207 210 212 210 205 202 204 204 202 200 202 207 206 202 201 203 206 209 212 218 221 226 233 244 256 267 288 311 323 329 333 339 344 346 347
199 197 196 199 199 199 199 201 203 204 207 208 207 206 203 206 207 203 202 202 206 206 204 204 209 210 209 211 215 217 220 228 242 252 269 297 316 327 333 337 341 344 347 350
188 188 191 192 195 198 198 200 201 203 202 203 203 201 200 205 206 203 201 203 207 205 205 204 206 209 208 207 212 216 219 224 237 252 274 301 318 332 338 341 343 347 350 353
184 185 187 188 189 193 195 197 200 202 203 205 205 204 200 203 204 204 204 205 208 207 207 205 203 204 203 202 207 211 216 221 234 253 270 293 314 329 338 342 345 350 354 357
184 187 185 181 182 185 187 192 196 199 203 204 204 206 203 207 205 203 204 206 208 208 208 207 204 202 203 205 207 210 218 222 234 250 267 288 309 323 331 338 342 348 353 356
179 180 179 177 181 185 186 191 195 199 202 204 203 208 206 208 209 206 206 207 207 208 209 207 205 203 204 206 209 214 218 225 237 250 261 281 306 320 326 332 339 346 351 353
180 180 181 182 181 183 190 193 195 201 207 208 207 211 209 208 207 204 204 205 207 209 210 208 208 205 207 209 213 218 217 225 240 252 261 274 301 316 327 332 337 342 346 349
182 180 184 187 188 188 192 196 199 206 210 210 215 216 209 209 207 204 205 206 208 210 211 210 208 208 210 212 217 219 221 231 243 251 262 272 291 304 318 328 330 334 340 344
184 184 188 190 189 191 194 199 208 215 216 217 218 214 211 208 209 208 207 208 209 209 207 206 206 210 212 216 220 220 225 232 239 248 259 268 284 304 316 321 322 326 331 338
184 186 187 186 190 194 199 202 207 215 219 220 218 214 210 208 208 209 209 210 210 208 208 206 208 211 211 217 220 221 226 230 235 245 252 265 283 300 312 317 318 324 329 335
190 191 189 189 191 196 197 200 207 215 218 217 218 211 209 208 209 209 211 213 213 212 210 208 209 209 210 215 221 225 228 231 237 245 255 265 277 291 301 307 314 320 326 332
191 194 195 197 198 198 199 203 208 214 218 222 220 208 212 210 209 211 212 213 213 213 211 210 210 210 212 218 222 225 229 232 236 244 252 263 276 287 293 300 306 312 318 323
197 198 198 201 206 207 208 208 210 212 215 215 216 210 213 212 210 214 213 213 211 208 208 210 211 214 219 222 223 225 229 233 238 245 252 262 273 280 287 295 301 305 311 316
202 203 204 206 209 214 215 215 218 217 219 221 219 218 215 217 215 216 216 213 211 210 210 212 216 220 222 224 224 227 230 235 241 247 253 261 267 274 281 290 298 301 305 309
207 204 206 209 214 217 219 222 222 222 223 221 217 219 223 225 221 222 222 217 215 215 215 216 221 222 221 223 227 230 234 239 244 250 255 259 265 271 277 284 290 295 300 303
217 214 212 215 219 223 224 225 229 230 228 226 225 228 234 233 227 227 225 220 216 217 219 221 224 223 223 227 231 236 240 244 249 253 257 261 267 272 278 284 289 292 295 297
223 223 220 221 224 228 228 230 237 239 237 232 224 225 231 234 227 226 226 224 221 220 221 224 226 229 230 233 238 242 246 250 254 258 262 264 269 275 279 284 288 291 294 295
227 225 225 227 228 230 228 233 238 240 235 234 229 230 232 232 233 229 227 225 223 224 225 228 233 237 236 238 242 248 251 255 259 263 266 269 272 276 280 284 287 290 292 294
230 230 232 233 234 232 231 236 241 243 238 236 236 236 235 236 236 233 228 227 227 228 230 234 238 242 242 243 247 251 255 259 262 266 270 274 277 280 282 284 286 288 290 292
233 236 239 240 239 239 234 238 242 246 244 244 242 238 237 238 239 236 235 233 232 232 235 238 241 245 247 249 252 254 258 262 266 269 273 276 279 281 283 285 287 288 289 291
236 239 241 243 243 240 239 240 243 246 241 243 244 240 238 241 241 238 237 237 237 238 239 243 246 250 251 253 255 258 260 263 267 271 274 277 280 282 283 285 287 289 290 291
237 241 243 245 245 243 241 240 241 241 241 244 245 244 242 242 243 244 242 241 243 244 246 248 252 252 254 256 258 260 263 265 268 272 275 277 280 282 284 286 288 289 290 290
239 242 244 246 247 245 243 241 242 243 244 245 246 245 246 245 244 245 245 244 246 248 250 253 255 255 257 259 260 263 265 267 270 273 275 278 280 283 285 287 289 290 290 291
242 243 245 245 245 245 244 244 245 246 247 248 250 249 248 247 246 247 249 249 250 252 252 255 257 258 260 261 262 264 267 270 272 274 276 278 281 283 286 288 289 290 291 291
243 244 245 247 247 245 245 246 246 247 249 250 252 253 253 251 250 251 251 252 252 254 256 258 260 261 262 263 265 267 269 271 273 275 276 278 281 284 286 288 289 290 290 291
244 245 246 247 247 247 246 246 247 248 249 251 252 253 254 254 254 253 252 254 256 258 258 259 261 263 264 266 268 269 271 272 273 275 277 279 281 284 285 287 288 289 290 291
Height
5788 5792 5794 5797 5801 5805 5808 5813 5816 5820 5823 5826 5829 5833 5836 5838 5841 5844 5846 5849 5851 5853 5855 5857 5859 5860 5862 5863 5864 5865 5866 5867 5867 5867 5867 5867 5867 5866 5865 5864 5862 5861 5859 5857
5789 5792 5794 5796 5800 5803 5807 5811 5815 5819 5822 5825 5828 5831 5834 5836 5839 5842 5844 5847 5849 5852 5854 5855 5857 5859 5860 5862 5863 5864 5865 5865 5866 5866 5866 5866 5866 5865 5864 5863 5862 5860 5859 5857
5789 5792 5794 5797 5800 5803 5807 5811 5814 5818 5820 5823 5826 5830 5833 5835 5837 5840 5842 5845 5848 5850 5852 5854 5856 5858 5859 5860 5862 5863 5864 5864 5865 5865 5866 5866 5865 5864 5864 5863 5861 5860 5858 5856
5789 5792 5794 5797 5800 5803 5807 5810 5813 5816 5819 5822 5826 5828 5831 5833 5836 5839 5841 5844 5846 5848 5850 5852 5854 5856 5858 5859 5860 5862 5863 5863 5864 5865 5865 5865 5864 5864 5863 5862 5861 5859 5858 5856
5790 5792 5794 5797 5800 5803 5807 5810 5813 5815 5818 5821 5824 5827 5830 5832 5835 5838 5840 5842 5845 5846 5848 5850 5853 5855 5856 5858 5859 5861 5862 5863 5863 5864 5864 5864 5863 5863 5862 5861 5860 5859 5858 5856
5791 5793 5795 5798 5800 5803 5806 5810 5812 5814 5817 5820 5823 5825 5829 5831 5834 5836 5838 5841 5843 5845 5847 5849 5851 5853 5855 5856 5858 5859 5860 5861 5862 5863 5863 5863 5862 5862 5861 5861 5860 5859 5857 5856
5792 5793 5796 5798 5801 5804 5807 5810 5812 5814 5816 5819 5822 5824 5828 5830 5832 5834 5837 5839 5841 5843 5845 5847 5849 5851 5853 5855 5857 5858 5859 5860 5861 5861 5861 5861 5861 5861 5861 5860 5859 5858 5857 5856
5792 5794 5797 5799 5801 5804 5806 5810 5813 5815 5817 5819 5821 5822 5827 5828 5830 5832 5835 5837 5839 5841 5843 5845 5847 5849 5851 5853 5855 5856 5858 5859 5860 5860 5860 5860 5860 5860 5860 5859 5858 5857 5856 5855
5792 5795 5797 5799 5802 5804 5806 5808 5811 5814 5815 5817 5819 5822 5825 5826 5829 5831 5833 5835 5838 5839 5842 5844 5846 5847 5850 5852 5853 5855 5856 5857 5858 5858 5859 5859 5859 5859 5858 5858 5857 5856 5856 5854
5793 5795 5797 5799 5802 5804 5807 5809 5811 5812 5814 5816 5819 5821 5823 5825 5827 5829 5832 5834 5836 5838 5840 5842 5844 5846 5848 5850 5852 5853 5854 5855 5856 5857 5857 5857 5858 5857 5857 5857 5856 5855 5855 5854
5793 5796 5798 5799 5802 5804 5807 5809 5810 5812 5814 5816 5818 5822 5822 5823 5825 5827 5829 5832 5834 5836 5838 5840 5842 5844 5846 5848 5850 5851 5852 5853 5854 5855 5855 5856 5856 5856 5856 5855 5855 5854 5853 5852
5793 5796 5797 5800 5802 5803 5805 5807 5810 5812 5814 5815 5817 5822 5820 5822 5823 5825 5827 5829 5831 5833 5835 5838 5840 5842 5844 5846 5848 5849 5850 5851 5852 5853 5854 5854 5854 5854 5854 5853 5853 5852 5852 5851
5794 5796 5798 5800 5803 5804 5805 5807 5809 5811 5812 5814 5816 5821 5819 5821 5822 5823 5825 5827 5829 5831 5833 5835 5838 5840 5842 5844 5845 5847 5848 5849 5850 5851 5851 5852 5852 5852 5852 5851 5851 5850 5850 5849
5793 5795 5798 5800 5801 5803 5805 5807 5808 5810 5811 5813 5815 5817 5818 5819 5820 5822 5823 5825 5827 5829 5831 5834 5836 5838 5840 5841 5843 5844 5845 5846 5847 5848 5849 5849 5850 5850 5849 5849 5849 5848 5848 5847
5792 5794 5796 5798 5800 5802 5803 5805 5807 5809 5810 5812 5813 5815 5816 5817 5818 5820 5821 5823 5825 5827 5829 5831 5833 5835 5837 5839 5840 5842 5843 5844 5845 5846 5846 5847 5847 5847 5847 5847 5846 5846 5845 5844
5791 5793 5795 5797 5798 5800 5802 5803 5805 5807 5808 5810 5811 5813 5814 5814 5816 5817 5819 5821 5823 5825 5827 5829 5831 5832 5834 5836 5838 5839 5840 5841 5842 5842 5843 5843 5844 5844 5844 5843 5843 5842 5842 5841
5789 5791 5793 5795 5797 5798 5801 5802 5804 5805 5807 5808 5809 5812 5812 5812 5814 5815 5817 5819 5820 5823 5825 5826 5828 5830 5831 5833 5834 5836 5837 5837 5838 5839 5840 5840 5840 5840 5840 5840 5839 5839 5838 5837
5786 5788 5790 5792 5795 5796 5801 5800 5801 5803 5804 5806 5807 5808 5809 5811 5812 5813 5814 5816 5818 5820 5822 5823 5825 5827 5828 5829 5831 5832 5833 5834 5834 5835 5835 5835 5835 5835 5835 5835 5835 5834 5833 5832
5783 5785 5787 5789 5791 5794 5797 5798 5799 5800 5801 5803 5804 5805 5806 5808 5809 5810 5812 5813 5815 5817 5818 5820 5822 5823 5824 5825 5827 5828 5829 5829 5830 5830 5831 5831 5830 5831 5830 5830 5829 5829 5828 5827
5780 5782 5784 5786 5787 5790 5795 5795 5795 5798 5799 5800 5801 5802 5803 5804 5806 5808 5808 5810 5811 5813 5815 5816 5818 5819 5820 5821 5822 5823 5824 5825 5825 5825 5826 5826 5825 5825 5825 5824 5823 5823 5822 5820
5775 5778 5780 5782 5783 5786 5790 5791 5792 5795 5797 5796 5797 5798 5800 5801 5803 5804 5805 5806 5807 5809 5811 5812 5814 5815 5816 5817 5818 5818 5819 5819 5820 5820 5820 5820 5820 5819 5818 5818 5817 5816 5815 5813
5771 5773 5775 5777 5779 5784 5785 5787 5789 5791 5791 5792 5793 5794 5796 5797 5798 5799 5801 5802 5803 5805 5806 5807 5809 5810 5811 5811 5812 5813 5813 5814 5814 5814 5814 5814 5813 5813 5812 5811 5810 5808 5807 5805
5766 5769 5770 5773 5777 5778 5780 5781 5783 5785 5787 5788 5789 5790 5792 5793 5794 5795 5796 5797 5799 5800 5801 5802 5803 5804 5805 5805 5806 5807 5807 5807 5807 5807 5807 5807 5806 5805 5804 5803 5802 5800 5798 5796
5760 5762 5765 5767 5770 5772 5774 5775 5777 5779 5781 5782 5784 5785 5787 5788 5789 5790 5791 5792 5793 5794 5795 5796 5797 5798 5798 5799 5799 5800 5800 5800 5800 5800 5800 5799 5798 5797 5796 5795 5793 5791 5789 5787
5754 5756 5758 5761 5764 5765 5767 5769 5771 5773 5775 5776 5778 5779 5781 5782 5783 5784 5786 5787 5787 5788 5789 5790 5790 5791 5791 5792 5792 5792 5792 5792 5792 5792 5791 5791 5790 5788 5787 5785 5783 5781 5779 5776
5747 5749 5751 5754 5756 5758 5760 5762 5764 5766 5768 5769 5771 5773 5774 5775 5777 5778 5779 5780 5781 5781 5782 5782 5783 5783 5784 5784 5784 5784 5784 5784 5783 5783 5782 5781 5780 5778 5777 5775 5773 5770 5768 5765